Regional Weather Roundup
Issued by NWS

Home | Current Version | Previous Version | Graphics & Text | Print | Product List | Glossary On
Versions: 1 2 3 4 5 6 7 8 9 10 11 12 13 14 15 16 17 18 19 20 21 22 23 24 25 26 27 28 29 30 31 32 33 34 35 36 37 38 39 40 41 42 43 44 45 46 47 48 49 50
000
ASUS43 KOAX 200310
RWRNE

WEATHER ROUNDUP FOR NEBRASKA
NATIONAL WEATHER SERVICE OMAHA NE
1000 PM CDT FRI SEP 19 2014

NOTES: SATELLITE DATA IS BEING USED TO AUGMENT CLOUD COVER ABOVE
       12000 FEET.
       "FAIR" INDICATES FEW OR NO CLOUDS BELOW 12,000 FEET WITH NO
       SIGNIFICANT WEATHER AND/OR OBSTRUCTIONS TO VISIBILITY.

  * THESE STATIONS DO NOT REPORT WEATHER SUCH AS RAIN...SNOW OR FOG.

NEZ001>004-019>022-054>056-200400-
NEBRASKA PANHANDLE

CITY           SKY/WX    TMP DP  RH WIND       PRES   REMARKS
SCOTTSBLUFF    PTCLDY    68  51  54 NE10      29.94R
ALLIANCE       CLOUDY    71  52  50 NE7       29.93R
CHADRON        CLEAR     66  54  65 NE8       29.92R
KIMBALL        CLOUDY    63  52  69 NW3       29.99R
SIDNEY           N/A     65  57  75 N6        29.96
$$

NEZ057>060-069>072-079>082-200400-
SOUTHWEST NEBRASKA

CITY           SKY/WX    TMP DP  RH WIND       PRES   REMARKS
NORTH PLATTE   MOCLDY    76  59  55 VRB6      29.85R
IMPERIAL       CLOUDY    77  59  53 S9        29.88R
LEXINGTON      CLEAR     75  61  60 S12       29.84S
MCCOOK         PTCLDY    78  59  51 S12       29.86R
OGALLALA       CLOUDY    69  59  70 NE6       29.87S
$$

NEZ005>010-023>029-035>040-094-200400-
NORTH CENTRAL NEBRASKA

CITY           SKY/WX    TMP DP  RH WIND       PRES   REMARKS
VALENTINE      PTCLDY    66  56  70 CALM      29.85R
AINSWORTH      MOCLDY    68  59  72 CALM      29.85R
BROKEN BOW     PTCLDY    80  61  52 W9G17     29.84R
O`NEILL        PTCLDY    69  64  83 NW5       29.80S
ORD            CLEAR     74  62  66 W6        29.80R
THEDFORD       MOCLDY    72  60  65 CALM      29.87S
$$

NEZ041-046>049-061>064-073>077-083>087-200400-
SOUTH CENTRAL NEBRASKA

CITY           SKY/WX    TMP DP  RH WIND       PRES   REMARKS
GRAND ISLAND   CLEAR     78  62  57 S15       29.83R
AURORA         CLEAR     76  61  59 S14G21    29.83R
HASTINGS       CLEAR     73  60  63 S7        29.86R
HEBRON         CLEAR     75  64  69 S8        29.87R
HOLDREGE       CLEAR     73  59  60 S12       29.86S
KEARNEY *      CLEAR     72  61  68 S12       29.86R
YORK           CLEAR     72  66  83 S8        29.84R
$$

NEZ011>018-030>034-042>045-200400-
NORTHEAST NEBRASKA

CITY           SKY/WX    TMP DP  RH WIND       PRES   REMARKS
NORFOLK        CLEAR     77  65  66 S16       29.75R
ALBION         MOCLDY    75  63  65 S10       29.78S
BLAIR          CLEAR     76  69  77 S15G21    29.80F
COLUMBUS *     CLEAR     79  64  61 S13G21    29.79S
FREMONT        CLEAR     78  65  64 S12G17    29.79S
TEKAMAH        CLEAR     75  69  81 S9        29.76F
WAYNE          PTCLDY    73  66  77 S6        29.75S
$$

NEZ050>053-065>068-078-088>093-200400-
SOUTHEAST NEBRASKA

CITY           SKY/WX    TMP DP  RH WIND       PRES   REMARKS
LINCOLN        CLEAR     75  67  76 S13       29.84R
OMAHA EPPLEY   PTCLDY    75  68  78 S16       29.81S
BEATRICE       PTCLDY    75  69  80 S10G18    29.88R
FALLS CITY     CLEAR     72  68  87 S10       29.89R
NEBRASKA CITY    N/A     73  64  75 S15G23    29.87S
PLATTSMOUTH    CLEAR     73  67  82 S15       29.84F
$$

NEZ044-045-051>053-067-200400-
OMAHA AREA

CITY           SKY/WX    TMP DP  RH WIND       PRES   REMARKS
OMAHA EPPLEY   PTCLDY    75  68  78 S16       29.81S
BLAIR          CLEAR     76  69  77 S15G21    29.80F
FREMONT        CLEAR     78  65  64 S12G17    29.79S
MILLARD        CLEAR     77  70  79 S12G17    29.82S
OFFUTT AFB     CLEAR     74  73  99 S16       29.82F
PLATTSMOUTH    CLEAR     73  67  82 S15       29.84F
WAHOO          FAIR      74  65  72 S8        29.81S
$$


USA.gov is the U.S. government's official web portal to all federal, state and local government web resources and services.